Location: Corralito
(10.2667°N, 66.9500°W)
Time: 03:44:20
(UTC+00:00)

CZ-4B DEB - Pass Details

Date: 04 December 2023
Orbit: 837 x 858 km, 99.0° (Epoch: 22 February)

Event Time Altitude Azimuth Distance (km) Brightness Sun altitude
Rises 00:08:42 0° 177° (S) 3,403 7.5 -29.4°
Reaches altitude 10° 00:11:07 10° 181° (S) 2,471 6.8 -30.0°
Maximum altitude 00:16:27 54° 258° (WSW) 1,031 4.8 -31.2°
Enters shadow 00:20:00 21° 327° (NNW) 1,815 6.0 -32.1°
